Overview Statistics Trail Chart Weather Telemetry Raw packets
 

This is the latest recevied weather packets stored in our database for station/object 4S6DRJ-13. If no packets are shown the sender has not sent any weather packets the latest 10 day(s).

<< 488 489 490 491 492 493 494 >>
Time Temp. Humidity Pressure Rain* Wind** Luminosity Snow
1787706704 26.67° C 90% 1010.3 hPa 0 mm 1.34 m/s, 233° 45 W/m² -
1787706643 26.67° C 90% 1010.5 hPa 0 mm 0.89 m/s, 224° 44 W/m² -
1787706582 26.67° C 90% 1010.4 hPa 0 mm 0.89 m/s, 231° 42 W/m² -
1787706521 26.67° C 90% 1010.3 hPa 0 mm 1.79 m/s, 225° 40 W/m² -
1787706460 26.67° C 90% 1010.1 hPa 0 mm 0.89 m/s, 226° 38 W/m² -
1787706399 26.67° C 90% 1010.2 hPa 0 mm 0 m/s 36 W/m² -
1787706338 26.67° C 90% 1010.1 hPa 0 mm 0.89 m/s, 192° 35 W/m² -
1787706216 26.67° C 90% 1010.3 hPa 0 mm 0.89 m/s, 193° 31 W/m² -
1787706158 26.67° C 90% 1010.2 hPa 0 mm 0.89 m/s, 226° 29 W/m² -
1787706094 26.67° C 90% 1010.2 hPa 0 mm 0.45 m/s, 258° 25 W/m² -
1787706033 26.67° C 90% 1010.2 hPa 0 mm 0.89 m/s, 269° 24 W/m² -
1787705973 26.67° C 90% 1010.3 hPa 0.25 mm 0.89 m/s, 232° 21 W/m² -
1787705912 26.67° C 90% 1010.2 hPa 0.25 mm 0 m/s 19 W/m² -
1787705850 26.67° C 90% 1010.2 hPa 0.25 mm 1.34 m/s, 259° 18 W/m² -
1787705789 26.67° C 90% 1010.3 hPa 0.25 mm 0.89 m/s, 224° 17 W/m² -
1787705728 26.67° C 90% 1010.5 hPa 0.25 mm 0.45 m/s, 188° 18 W/m² -
1787705667 26.67° C 90% 1010.2 hPa 0.25 mm 0.89 m/s, 239° 20 W/m² -
1787705607 26.67° C 90% 1010.1 hPa 0.25 mm 0.45 m/s, 203° 20 W/m² -
1787705545 26.67° C 90% 1010.1 hPa 0.25 mm 0.89 m/s, 195° 19 W/m² -
1787705484 26.67° C 90% 1010.2 hPa 0.25 mm 0.45 m/s, 241° 18 W/m² -
1787705423 26.67° C 90% 1010.2 hPa 0.25 mm 0 m/s 15 W/m² -
1787705362 26.67° C 90% 1010.1 hPa 0.25 mm 0 m/s 14 W/m² -
1787705301 26.67° C 90% 1010.3 hPa 0.25 mm 0 m/s 13 W/m² -
1787705240 26.67° C 90% 1010.4 hPa 0.25 mm 0 m/s 11 W/m² -
1787705179 26.67° C 89% 1010.4 hPa 0.25 mm 0.45 m/s, 263° 9 W/m² -

* Rain latest hour (hover to see other rain measurements)
** Current wind speed in m/s (hover to see current wind gust speed)